Location: St. Louis
(38.6270°N, 90.1994°W)
Time: 02:46:44
(UTC-06:00)

Transit 2A - Pass Details

Date: 05 December 2021
Orbit: 591 x 966 km, 66.7° (Epoch: 24 January)

Event Time Altitude Azimuth Distance (km) Brightness Sun altitude
Rises 09:13:38 0° 327° (NNW) 3,660 8.9 18.6°
Reaches altitude 10° 09:16:18 10° 323° (NW) 2,701 8.3 18.9°
Maximum altitude 09:22:28 55° 248° (WSW) 1,114 7.0 19.6°
Drops below altitude 10° 09:28:16 10° 172° (S) 2,539 10.0 20.3°
Sets 09:30:42 0° 168° (SSE) 3,424 10.6 20.6°
